Location: Unspecified
(40.7945°N, 0.0000°E)
Time: 19:30:46
(UTC+00:00)

Explorer 7 - Pass Details

Date: 22 June 2021
Orbit: 484 x 676 km, 50.3° (Epoch: 30 July)

Event Time Altitude Azimuth Distance (km) Brightness Sun altitude
Rises 01:43:32 0° 304° (WNW) 2,970 10.7 -21.6°
Reaches altitude 10° 01:45:57 10° 306° (NW) 2,032 9.8 -21.4°
Maximum altitude 01:50:38 74° 32° (NNE) 642 7.2 -21.0°
Drops below altitude 10° 01:55:00 10° 117° (ESE) 1,906 9.6 -20.6°
Sets 01:57:12 0° 119° (ESE) 2,770 10.4 -20.4°
